{"data":{"norad_id":65787,"epoch":"2026-09-20T15:47:38.760864Z","epoch_age_seconds":133055,"freshness":"FRESH","line1":"1 65787U 25217AB  26263.65808751 -.00000401  00000+0 -23555-4 0  9999","line2":"2 65787  51.9011 246.0307 0000272  67.6889 292.4102 14.79928170 53959","mean_motion":14.7992817,"eccentricity":2.72e-5,"inclination_deg":51.9011,"raan_deg":246.0307,"arg_perigee_deg":67.6889,"mean_anomaly_deg":292.4102,"bstar":-2.3555e-5,"rev_number":5395,"period_min":97.302019732485,"perigee_km":629.36026721935,"apogee_km":629.74148543982,"semimajor_km":7007.6878763296,"source":"CELESTRAK","updated_at":"2026-09-21T09:00:15.562707Z"}}